Location: Pasadena, ca
(34.1243°N, 118.1037°W)
Time: 09:48:20
(UTC-07:00)

Tiangong 1 - Pass Details

Date: 09 October 2017
Orbit: 294 x 320 km, 42.8° (Epoch: 18 October)

Event Time Altitude Azimuth Distance (km) Brightness Sun altitude
Rises 19:11:35 0° 291° (WNW) 2,039 6.2 -10.4°
Reaches altitude 10° 19:14:13 10° 319° (NW) 1,203 4.2 -10.9°
Maximum altitude 19:15:44 14° 354° (N) 1,011 3.3 -11.2°
Drops below altitude 10° 19:17:14 10° 28° (NNE) 1,194 3.3 -11.5°
Enters shadow 19:17:31 - 33° (NNE) 1,262 3.4 -11.6°
